sat.trackr.live / text

‹ back to catalog

STARLINK-34382

NORAD 64667 · 2025-139D

PAYLOAD ACTIVE UNKNOWN

§ Identity

Operator
Country
US
Launch date
2025-06-28
Launch site
AFETR
Launch vehicle
Mass (kg)
RCS (m²)

Purposes: comms

External: N2YO · Heavens-Above · Gunter

§ Orbital elements

Epoch: 2026-05-25T03:10:36.889824Z

Period
94.10 min
Inclination
53.1576°
Eccentricity
0.0001412
Mean motion
15.30214953 rev/d
Perigee alt
474.2 km
Apogee alt
476.1 km
Semi-major
6,853.3 km
B*
5.7999e-4
RAAN
132.2679°
Arg perigee
102.8358°
Mean anomaly
257.2801°
Rev number
5,198

§ Raw data

STARLINK-343821 64667U 25139D   26145.13237141  .00016865  00000+0  57999-3 0  99962 64667  53.1576 132.2679 0001412 102.8358 257.2801 15.30214953 51984

JSON: /api/v1/satellites/64667 · /tle

For live sub-satellite position, see the globe view (requires WebGL).

§ Visibility from observer

Set your observer location to see the next 7 days of passes ≥ 10°. The values pass through the URL so the page stays shareable.

No JS? Fill the form by hand. The geolocation button needs JavaScript.